Weather History for Hutchinson, MN

Change the Weather History Date:

Sunday, January 20, 2013

  Actual Average Record
Temperature  
Mean Temperature 3 °F -  
Max Temperature 9 °F 24 °F 44 °F (1964)
Min Temperature -3 °F 4 °F -30 °F (1984)
Degree Days  
Heating Degree Days 62    
Moisture  
Dew Point -3 °F    
Average Humidity 77    
Maximum Humidity 85    
Minimum Humidity 72    
Precipitation  
Precipitation 0.00 in - - ()
Sea Level Pressure  
Sea Level Pressure 30.31 in    
Wind  
Wind Speed 12 mph (WNW)    
Max Wind Speed 21 mph    
Max Gust Speed 24 mph    
Visibility 10 miles    
Events Snow    
Averages and records for this station are not official NWS values.
T = Trace of Precipitation, MM = Missing Value Source: NWS Daily Summary

Daily Weather History Graph

Daily Weather History Graph

Search for Another Location

Airport:

Trip Planner

Search our weather history database for the weather conditions in past years. The results will help you decide how hot, cold, wet, or windy it might be!

Date:

Astronomy

Jan. 20, 2013 Rise Set
Actual Time 7:48 AM CST 5:09 PM CST
Civil Twilight 7:16 AM CST 5:41 PM CST
Nautical Twilight 6:40 AM CST 6:17 PM CST
Astronomical Twilight 6:05 AM CST 6:52 PM CST
Moon 12:11 PM CST (1/20) 2:19 AM CST (1/20)
Length of Visible Light 10h 25m
Length of Day
9h 21m
Waxing Gibbous, 66% of the Moon is Illuminated
Jan 20
Waxing Gibbous
Jan 26
Full
Feb 3
Last Quarter
Feb 10
New
Feb 17
First Quarter

Hourly Weather History & Observations

Time (CST) Temp. Windchill Dew Point Humidity Pressure Visibility Wind Dir Wind Speed Gust Speed Precip Events Conditions
12:09 AM 1.2 °F -16.4 °F -4.0 °F 79% 30.26 in 10.0 mi WNW 12.7 mph - N/A   Clear
12:28 AM 0.5 °F -15.6 °F -4.7 °F 79% 30.26 in 10.0 mi WNW 10.4 mph - N/A   Clear
12:48 AM 0.3 °F -18.3 °F -4.4 °F 81% 30.26 in 10.0 mi WNW 13.8 mph 18.4 mph N/A   Clear
1:08 AM 0.3 °F -16.7 °F -4.4 °F 81% 30.27 in 10.0 mi WNW 11.5 mph - N/A   Clear
1:29 AM 0.3 °F -18.3 °F -4.4 °F 81% 30.27 in 10.0 mi WNW 13.8 mph 19.6 mph N/A   Clear
1:48 AM 0.3 °F -16.7 °F -4.4 °F 81% 30.28 in 10.0 mi WNW 11.5 mph - N/A   Clear
1:55 AM 0.3 °F -17.5 °F -4.5 °F 80% 30.28 in 10.0 mi WNW 12.7 mph - N/A   Clear
2:25 AM -0.4 °F -17.6 °F -5.8 °F 78% 30.30 in 10.0 mi WNW 11.5 mph - N/A   Clear
2:45 AM -0.4 °F -18.4 °F -5.8 °F 78% 30.31 in 10.0 mi WNW 12.7 mph - N/A   Clear
3:05 AM -0.4 °F -16.7 °F -5.8 °F 78% 30.32 in 10.0 mi WNW 10.4 mph - N/A   Clear
3:30 AM -0.4 °F -16.7 °F -5.8 °F 78% 30.32 in 10.0 mi WNW 10.4 mph - N/A   Clear
3:45 AM -0.4 °F -15.7 °F -5.8 °F 78% 30.32 in 10.0 mi WNW 9.2 mph - N/A   Clear
4:05 AM -0.4 °F -15.7 °F -5.8 °F 78% 30.31 in 10.0 mi WNW 9.2 mph - N/A   Clear
4:30 AM -0.4 °F -15.7 °F -5.8 °F 78% 30.30 in 10.0 mi WNW 9.2 mph - N/A   Clear
4:50 AM -0.4 °F -15.7 °F -5.8 °F 78% 30.30 in 10.0 mi NW 9.2 mph - N/A   Clear
5:10 AM -0.4 °F -12.0 °F -5.8 °F 78% 30.30 in 10.0 mi WNW 5.8 mph - N/A   Scattered Clouds
5:30 AM -0.4 °F -13.4 °F -5.8 °F 78% 30.31 in 10.0 mi WNW 6.9 mph - N/A   Overcast
5:45 AM -0.4 °F -15.7 °F -5.8 °F 78% 30.31 in 10.0 mi WNW 9.2 mph - N/A   Overcast
6:10 AM -0.4 °F -15.7 °F -5.8 °F 78% 30.32 in 10.0 mi West 9.2 mph - N/A   Overcast
6:30 AM -0.4 °F -10.4 °F -5.8 °F 78% 30.31 in 10.0 mi WNW 4.6 mph - N/A   Overcast
6:50 AM -0.4 °F -12.0 °F -5.8 °F 78% 30.30 in 10.0 mi NW 5.8 mph - N/A   Overcast
7:05 AM -0.4 °F -13.4 °F -5.8 °F 78% 30.31 in 10.0 mi WNW 6.9 mph - N/A   Overcast
7:25 AM -0.4 °F -14.7 °F -5.8 °F 78% 30.32 in 10.0 mi West 8.1 mph - N/A   Mostly Cloudy
7:50 AM 1.4 °F -14.5 °F -4.0 °F 78% 30.33 in 10.0 mi West 10.4 mph - N/A   Overcast
8:05 AM 1.4 °F -14.5 °F -4.0 °F 78% 30.34 in 10.0 mi WNW 10.4 mph - N/A   Overcast
8:26 AM 1.0 °F -14.9 °F -5.3 °F 75% 30.34 in 10.0 mi West 10.4 mph - N/A   Mostly Cloudy
8:28 AM 1.0 °F -14.9 °F -4.9 °F 76% 30.35 in 10.0 mi West 10.4 mph - N/A   Mostly Cloudy
8:49 AM 1.4 °F -15.3 °F -4.5 °F 76% 30.35 in 10.0 mi West 11.5 mph - N/A   Mostly Cloudy
9:07 AM 1.6 °F -14.2 °F -4.5 °F 76% 30.36 in 10.0 mi WNW 10.4 mph - N/A   Overcast
9:28 AM 2.1 °F -13.6 °F -4.0 °F 76% 30.37 in 10.0 mi WNW 10.4 mph - N/A   Overcast
9:48 AM 2.8 °F -14.3 °F -3.5 °F 75% 30.38 in 10.0 mi WNW 12.7 mph - N/A   Overcast
10:04 AM 3.2 °F -13.1 °F -3.6 °F 73% 30.38 in 10.0 mi WNW 11.5 mph - N/A   Mostly Cloudy
10:28 AM 3.2 °F -13.9 °F -3.3 °F 74% 30.39 in 10.0 mi WNW 12.7 mph - N/A   Scattered Clouds
10:48 AM 4.3 °F -10.9 °F -2.4 °F 74% 30.38 in 10.0 mi WNW 10.4 mph - N/A   Clear
11:07 AM 6.3 °F -9.2 °F -1.1 °F 72% 30.38 in 10.0 mi WNW 11.5 mph - N/A   Scattered Clouds
11:28 AM 6.1 °F -9.5 °F -1.1 °F 72% 30.38 in 10.0 mi WNW 11.5 mph - N/A   Mostly Cloudy
11:49 AM 6.6 °F -9.5 °F 0.1 °F 75% 30.37 in 10.0 mi WNW 12.7 mph - N/A   Overcast
12:07 PM 6.6 °F -10.2 °F 0.3 °F 75% 30.36 in 10.0 mi West 13.8 mph - N/A   Mostly Cloudy
12:29 PM 6.6 °F -10.2 °F 0.3 °F 75% 30.35 in 10.0 mi West 13.8 mph - N/A   Mostly Cloudy
12:48 PM 6.6 °F -9.5 °F -0.4 °F 73% 30.35 in 10.0 mi West 12.7 mph 18.4 mph N/A   Scattered Clouds
1:09 PM 9.1 °F -8.2 °F 2.3 °F 74% 30.33 in 10.0 mi West 16.1 mph - N/A   Clear
1:29 PM 9.1 °F -6.4 °F 2.1 °F 73% 30.32 in 10.0 mi West 12.7 mph - N/A   Mostly Cloudy
1:48 PM 9.1 °F -7.7 °F 2.3 °F 74% 30.31 in 10.0 mi West 15.0 mph - N/A   Scattered Clouds
2:08 PM 9.1 °F -7.0 °F 2.5 °F 74% 30.30 in 10.0 mi West 13.8 mph - N/A   Clear
2:28 PM 9.1 °F -6.4 °F 3.2 °F 77% 30.30 in 10.0 mi West 12.7 mph - N/A   Scattered Clouds
2:49 PM 9.1 °F -8.8 °F 3.9 °F 79% 30.30 in 10.0 mi West 17.3 mph - N/A   Overcast
3:08 PM 9.1 °F -8.8 °F 4.1 °F 80% 30.30 in 4.0 mi West 17.3 mph 21.9 mph N/A   Haze
3:28 PM 9.1 °F -8.8 °F 5.2 °F 84% 30.30 in 2.0 mi West 17.3 mph - N/A Snow Light Snow
3:48 PM 9.1 °F -5.6 °F 5.4 °F 85% 30.29 in 2.0 mi West 11.5 mph - N/A Snow Light Snow
4:09 PM 9.1 °F -8.2 °F 3.9 °F 79% 30.29 in 7.0 mi West 16.1 mph - N/A   Overcast
4:28 PM 9.1 °F -7.0 °F 5.0 °F 83% 30.28 in 3.0 mi West 13.8 mph 18.4 mph N/A   Overcast
4:48 PM 9.1 °F -7.7 °F 4.6 °F 82% 30.28 in 2.5 mi WNW 15.0 mph - N/A Snow Light Snow
5:08 PM 9.1 °F -7.7 °F 2.1 °F 73% 30.28 in 10.0 mi WNW 15.0 mph - N/A   Scattered Clouds
5:29 PM 6.6 °F -10.2 °F 0.1 °F 75% 30.28 in 10.0 mi WNW 13.8 mph 19.6 mph N/A   Clear
5:48 PM 6.6 °F -10.9 °F -0.0 °F 74% 30.28 in 10.0 mi WNW 15.0 mph - N/A   Clear
6:09 PM 5.9 °F -11.8 °F -0.8 °F 74% 30.28 in 10.0 mi WNW 15.0 mph 21.9 mph N/A   Clear
6:28 PM 4.1 °F -14.1 °F -2.4 °F 75% 30.28 in 10.0 mi NW 15.0 mph - N/A   Clear
6:49 PM 3.2 °F -15.3 °F -4.0 °F 72% 30.28 in 10.0 mi WNW 15.0 mph 23.0 mph N/A   Clear
7:09 PM 2.8 °F -13.5 °F -4.0 °F 73% 30.28 in 10.0 mi WNW 11.5 mph - N/A   Clear
7:29 PM 1.9 °F -15.5 °F -4.0 °F 76% 30.28 in 10.0 mi WNW 12.7 mph 17.3 mph N/A   Clear
7:34 PM 1.8 °F -17.1 °F -4.2 °F 76% 30.28 in 10.0 mi WNW 15.0 mph - N/A   Clear
8:10 PM 1.4 °F -16.1 °F -4.0 °F 78% 30.27 in 10.0 mi WNW 12.7 mph - N/A   Clear
8:30 PM -0.4 °F -16.7 °F -5.8 °F 78% 30.27 in 10.0 mi WNW 10.4 mph - N/A   Clear
8:45 PM -0.4 °F -22.8 °F -5.8 °F 78% 30.27 in 10.0 mi WNW 20.7 mph 24.2 mph N/A   Clear
9:10 PM -0.4 °F -19.2 °F -7.6 °F 72% 30.28 in 10.0 mi WNW 13.8 mph 19.6 mph N/A   Clear
9:30 PM -0.4 °F -19.9 °F -7.6 °F 72% 30.28 in 10.0 mi WNW 15.0 mph - N/A   Clear
9:50 PM -0.4 °F -19.2 °F -7.6 °F 72% 30.28 in 10.0 mi WNW 13.8 mph - N/A   Clear
10:10 PM -0.4 °F -17.6 °F -7.6 °F 72% 30.29 in 10.0 mi WNW 11.5 mph - N/A   Clear
10:30 PM -0.4 °F -19.2 °F -7.6 °F 72% 30.29 in 10.0 mi WNW 13.8 mph - N/A   Clear
10:45 PM -2.2 °F -19.9 °F -7.6 °F 78% 30.29 in 10.0 mi WNW 11.5 mph - N/A   Clear
11:05 PM -2.2 °F -20.7 °F -7.6 °F 78% 30.28 in 10.0 mi WNW 12.7 mph - N/A   Clear
11:27 PM -3.1 °F -21.0 °F -8.7 °F 77% 30.28 in 10.0 mi WNW 11.5 mph - N/A   Clear
11:28 PM -3.1 °F -21.0 °F -8.7 °F 77% 30.28 in 10.0 mi WNW 11.5 mph - N/A   Clear
11:48 PM -3.5 °F -21.4 °F -9.6 °F 75% 30.28 in 10.0 mi WNW 11.5 mph - N/A   Clear